Location: Asarope
(8.2500°N, 4.4833°E)
Time: 22:40:05
(UTC+00:00)

USA 229 DEB - Pass Details

Date: 07 June 2020
Orbit: 983 x 1229 km, 63.4° (Epoch: 24 June)

Event Time Altitude Azimuth Distance (km) Brightness Sun altitude
Rises 03:07:21 0° 334° (NNW) 4,087 6.8 -30.7°
Reaches altitude 10° 03:10:04 10° 334° (NNW) 3,145 6.2 -30.2°
Maximum altitude 03:17:42 81° 248° (WSW) 1,242 3.8 -28.6°
Drops below altitude 10° 03:25:25 10° 161° (SSE) 3,172 6.0 -27.0°
Sets 03:28:10 0° 160° (SSE) 4,124 6.7 -26.4°
